Tracking 31027 objects as of 19-Jul-2025
HD Live streaming from Space Station
objects crossing your sky now

FENGYUN 1C DEB

Track FENGYUN 1C DEB now!
10-day predictions


NORAD ID: 30542
Int'l Code: 1999-025AKG
Perigee: 856.5 km
Apogee: 897.9 km
Inclination: 98.8 °
Period: 102.4 minutes
Semi major axis: 7248 km
RCS: 0.0234 m2 (small)
Launch date: May 10, 1999
Source: People's Republic of China (PRC)
Launch site: Taiyaun Space Center, China (TSC)

Note: This is SATELLITE DEBRIS
Your satellite tracking list
KL-BETA B
Track 1 satellite(s)




NASA's NSSDC Master Catalog

Two Line Element Set (TLE):
1 30542U 99025AKG 25199.06022528 -.00000024  00000-0  11027-4 0  9992
2 30542  98.8035 231.8213 0028605  30.0897  24.5610 14.06881783948428
Source of the keplerian elements: AFSPC